星链-3295 (STARLINK-3295 )

导读

STARLINK-3295是美国SpaceX公司星链星座的卫星,于2022年1月6日发射,属于星链大规模组网阶段的部署卫星。星链项目旨在通过低轨卫星星座为全球提供高速宽带互联网服务,该卫星运行在近地轨道,是星链实现全球覆盖的组成单元之一,服务于偏远地区网络接入、移动场景通信等应用,也引发了太空 debris、天文观测影响等相关讨论。

基本信息
目录编号:
50840
目录名称:
STARLINK-3295
国际标识:
2022-001AP
轨道中心:
EARTH
卫星名称:
星链-3295
卫星全名:
星链-3295 (STARLINK-3295 )
卫星状态:
在轨 (已飞行1702 天)
发射日期:
2022-01-06 UTC
国别 :
美国 (US)
星等 :
--
轨道信息
数据来源 国际轨道数据
星历时间: 2026-09-03T07:07:29+0800
1天前
查看轨道信息
半长轴: 6843.381km
偏心率: 0.0001352
轨道倾角: 53.160°
近地点辐角 99.582°
升交点赤经 91.800°
平近点角 260.534°
近地点: 464.318km
远地点: 466.17km
周期: 93.900分钟
每日圈数: 15.335458
详细信息
固有亮度:
5
最大亮度:
2.5
卫星平台:
Starlink v1.5
覆盖范围:
全球
运营商:
太空探索技术公司
运营商所在国:
美国
制造商(研发单位):
太空探索技术公司
制造商所在国:
美国
使用方式:
暂无
卫星简介
星链(Starlink)计划是由太空探索技术公司(SpaceX)提出的一个巨型低轨卫星互联网星座项目,计划在2019年至2024年间在太空搭建由约1.2万颗卫星组成的“星链”网络,其中1584颗将部署在地球上空550千米处的近地轨道,并从2020年开始工作。该卫星仍在工作。
2D轨道图
3D轨道图
轨道高度分析图
轨道倾角分析图
轨道综合分析图
查看轨道综合分析图
交会数据列表
事件ID 空间交会对象 最接近时刻(TCA) 交会距离 交会风险概率(CRP) 交会风险指数(CRI) 操作
CDM_260905-024105-084006-797821
2026-09-05T
02:41:48+0000
2.408 km
极远距离
1.879126E-6 低风险 0.4
CDM_260903-174905-084006-884921
2026-09-03T
17:49:29+0000
2.469 km
极远距离
1.790516E-6 低风险 0.4
CDM_260905-032805-084006-797821
2026-09-05T
03:28:46+0000
2.851 km
极远距离
1.426146E-6 低风险 0.38
CDM_260903-215705-084006-614721
2026-09-03T
21:57:21+0000
2.651 km
极远距离
1.3547E-6 低风险 0.38
CDM_260903-154305-084005-357121
2026-09-03T
15:43:21+0000
2.696 km
极远距离
1.29472E-6 低风险 0.37
CDM_260904-113805-084006-503922
2026-09-04T
11:38:20+0000
2.725 km
极远距离
1.15714E-6 低风险 0.36
CDM_260905-140605-084006-044321
2026-09-05T
14:06:13+0000
2.426 km
极远距离
6.041754E-7 极低风险 0.31
CDM_260904-112805-084006-626721
2026-09-04T
11:28:46+0000
2.532 km
极远距离
4.1029E-7 极低风险 0.27